Location: Unspecified
(0.0000°N, 0.0000°E)
Time: 13:52:56
(UTC+00:00)

Vanguard 2 - Pass Details

Date: 08 December 2017
Orbit: 553 x 2939 km, 32.9° (Epoch: 19 July)

Event Time Altitude Azimuth Distance (km) Brightness Sun altitude
Rises 11:00:40 0° 224° (SW) 6,664 12.4 64.0°
Reaches altitude 10° 11:05:59 10° 217° (SW) 5,443 12.2 64.6°
Maximum altitude 11:19:46 38° 154° (SSE) 2,834 11.7 65.9°
Drops below altitude 10° 11:28:52 10° 89° (E) 3,648 11.2 66.6°
Sets 11:31:38 0° 81° (E) 4,331 11.4 66.7°
